Temp
22 22 21 22 27 30 31 32 34 33 32 32 31 32 33 32 32 31 28 27 27 25 26 25 24 23 22 22 21 20 20 19 19 19 18 18 17 17 16 16 16 15 15 15 15 15 15 15 15
21 20 22 25 28 30 32 34 32 33 32 31 31 31 32 32 31 31 29 27 27 25 26 25 24 23 22 22 21 20 20 19 19 18 18 17 17 16 16 15 15 15 15 15 15 14 15 14 14
21 22 25 29 30 31 31 31 33 33 31 31 32 31 31 31 30 30 28 27 26 24 26 25 24 23 22 22 21 20 20 19 19 18 18 17 17 16 16 15 15 15 14 14 14 13 12 14 14
22 23 25 28 30 33 33 34 34 32 32 31 31 32 31 29 29 28 27 26 26 25 23 25 24 23 22 22 21 21 20 19 19 18 17 17 16 16 15 15 14 14 14 14 14 13 13 13 13
23 26 29 30 30 33 33 33 33 33 32 32 31 31 31 29 28 27 26 26 26 25 24 23 24 23 23 22 22 21 20 20 19 18 18 17 16 16 15 14 14 14 14 14 13 13 13 13 13
25 26 28 29 31 33 33 32 32 32 32 32 31 31 31 29 28 28 27 26 26 26 24 23 23 23 23 22 22 21 20 19 19 18 18 17 16 16 15 14 14 14 14 13 13 13 13 13 13
26 29 29 30 31 32 32 32 32 32 32 32 31 31 31 30 27 27 26 26 25 26 24 23 23 23 22 22 21 21 20 19 19 18 18 17 16 15 15 14 14 14 13 13 14 14 14 13 13
25 29 28 30 30 31 33 31 31 31 32 30 29 30 31 30 28 27 28 27 27 26 25 23 21 22 22 21 21 21 20 19 18 18 17 17 16 15 14 14 14 14 13 13 13 13 14 14 14
26 27 27 29 30 31 32 32 31 30 29 30 30 30 30 29 28 28 28 28 28 27 26 24 23 21 20 20 19 20 20 19 18 18 17 16 15 14 15 15 14 13 13 13 13 13 13 14 14
25 27 28 30 31 31 32 32 31 31 30 30 29 30 30 29 28 28 28 29 28 28 27 25 23 22 20 19 18 18 19 19 19 18 15 14 15 15 15 15 14 13 13 13 13 13 13 13 12
26 26 29 30 30 30 31 31 31 30 30 30 30 29 29 29 28 28 28 28 29 28 28 26 24 22 21 20 20 18 17 16 16 16 15 15 15 15 15 15 15 14 13 13 13 13 13 12 13
27 28 28 28 29 29 31 30 30 30 30 29 29 28 28 28 28 28 28 28 28 29 28 27 24 22 20 20 20 19 18 18 17 17 15 15 14 14 14 15 15 14 13 13 13 13 13 13 13
28 28 28 28 28 29 29 29 30 29 29 29 28 28 28 28 28 28 28 28 27 27 28 26 25 22 21 19 20 19 19 18 18 17 16 14 15 15 15 15 14 13 14 13 12 13 13 13 13
28 28 28 28 28 28 29 29 29 28 28 28 28 28 28 28 28 28 28 27 27 27 27 25 25 22 21 19 19 19 18 18 17 17 16 15 14 14 14 14 14 13 13 12 12 12 13 13 13
27 27 28 29 28 29 28 28 28 28 28 29 28 28 28 28 28 28 28 27 26 26 25 24 24 22 20 18 18 18 17 18 17 16 16 15 14 14 14 14 14 13 13 12 12 12 12 12 13
26 27 26 28 29 28 28 26 29 28 29 29 29 29 29 28 28 28 27 27 26 25 25 23 23 21 18 17 17 17 17 16 17 17 16 14 13 13 13 13 13 12 12 13 12 11 12 12 12
25 25 25 26 29 29 28 27 29 28 29 28 29 29 28 28 28 27 27 26 26 25 24 22 21 19 17 16 16 16 17 16 16 16 16 15 14 13 13 13 12 13 13 12 12 12 11 12 12
24 24 25 26 28 28 28 28 30 29 28 28 29 28 28 28 28 27 27 26 25 23 22 21 19 18 17 16 15 16 16 16 16 16 16 15 14 13 13 13 13 13 13 12 12 11 12 12 11
26 26 26 27 29 27 27 28 29 29 28 29 29 28 28 27 27 27 27 24 22 20 19 18 17 17 16 16 16 17 17 16 16 16 15 14 13 13 13 13 13 13 13 12 11 11 11 11 11
24 25 25 27 28 28 28 27 29 29 28 28 28 29 28 27 28 27 26 22 20 18 17 17 16 16 15 16 17 18 17 17 17 17 16 14 14 13 13 13 13 13 12 11 11 11 12 12 12
24 24 24 25 27 28 27 27 27 29 29 28 27 27 28 28 27 27 25 21 19 18 17 16 16 15 16 17 17 16 16 16 16 16 15 14 13 13 13 12 12 12 12 11 12 11 11 11 11
23 26 25 25 25 24 27 25 27 28 28 28 28 28 28 28 28 28 24 20 19 18 16 16 15 15 16 15 16 16 17 17 17 16 16 14 13 12 12 12 12 11 11 12 12 12 12 11 11
25 26 26 25 24 24 25 25 26 27 27 28 29 28 28 28 28 28 23 21 19 17 16 15 15 15 15 16 16 15 16 17 16 16 15 13 13 13 12 12 11 12 12 12 12 12 12 11 12
26 25 25 25 25 23 24 24 25 26 27 28 29 28 28 28 28 26 23 20 18 18 16 15 15 15 14 15 15 15 15 15 16 15 15 13 13 13 12 12 12 12 12 12 11 11 11 12 12
25 24 23 22 24 24 25 25 26 27 28 28 28 28 29 29 26 24 21 20 18 18 17 16 15 15 15 15 14 14 14 14 14 14 13 13 13 13 12 12 12 12 12 12 12 12 12 12 13
24 24 23 21 23 24 26 24 26 28 29 28 28 28 29 26 25 23 21 20 19 18 17 17 16 15 15 15 15 14 14 15 15 14 13 13 13 13 12 12 12 11 12 12 12 12 13 13 13
23 24 26 25 26 26 27 28 28 28 28 28 28 28 28 26 24 22 21 20 19 18 17 17 16 16 15 15 15 14 14 14 14 13 13 13 13 12 12 12 12 12 12 12 13 13 12 13 13
24 26 23 25 22 24 26 27 27 27 28 28 28 29 28 25 23 22 21 20 19 18 17 17 16 16 16 15 15 15 14 14 14 13 13 12 13 13 13 12 12 12 13 12 12 13 12 13 13
23 24 24 25 26 25 24 26 29 28 28 29 29 28 27 25 23 22 21 20 19 18 17 17 17 16 16 16 15 15 14 14 14 13 12 13 12 13 12 12 12 12 12 12 13 12 12 13 13
24 24 24 24 23 26 26 26 28 28 28 30 30 28 27 25 24 22 21 20 19 18 18 17 17 17 16 16 16 15 14 14 13 13 13 12 12 13 13 13 13 13 12 12 12 12 12 12 12
Height
1518 1518 1520 1525 1521 1502 1492 1480 1466 1474 1480 1481 1484 1484 1480 1480 1482 1490 1493 1495 1496 1497 1497 1499 1501 1503 1505 1506 1508 1510 1511 1512 1512 1513 1514 1514 1515 1516 1516 1517 1517 1517 1517 1516 1516 1516 1516 1517 1517
1520 1521 1525 1519 1512 1498 1476 1463 1472 1471 1477 1483 1484 1483 1482 1483 1484 1487 1490 1494 1497 1496 1497 1498 1499 1501 1504 1506 1508 1509 1510 1511 1512 1513 1514 1514 1514 1514 1514 1515 1516 1516 1516 1516 1515 1515 1516 1516 1516
1522 1523 1520 1506 1497 1486 1480 1476 1472 1473 1482 1483 1481 1483 1483 1484 1488 1490 1492 1494 1495 1495 1495 1497 1499 1501 1503 1504 1506 1507 1508 1509 1511 1512 1512 1513 1513 1513 1513 1513 1514 1514 1514 1514 1514 1514 1514 1514 1514
1523 1524 1519 1504 1487 1469 1467 1464 1467 1475 1477 1481 1481 1481 1483 1488 1490 1491 1492 1494 1496 1496 1495 1496 1497 1499 1501 1503 1504 1506 1507 1508 1509 1509 1510 1510 1511 1511 1511 1511 1511 1511 1512 1512 1512 1512 1512 1512 1513
1522 1516 1503 1494 1485 1470 1467 1470 1470 1474 1476 1478 1480 1481 1481 1486 1490 1491 1491 1493 1495 1497 1498 1495 1496 1497 1499 1500 1502 1504 1505 1506 1507 1508 1508 1509 1509 1509 1509 1509 1509 1509 1509 1509 1509 1509 1509 1510 1510
1518 1511 1501 1493 1478 1466 1468 1473 1474 1475 1476 1475 1481 1482 1481 1485 1488 1491 1491 1491 1493 1495 1496 1496 1495 1496 1496 1498 1500 1501 1503 1505 1506 1506 1506 1507 1508 1507 1507 1507 1507 1506 1506 1506 1506 1505 1506 1506 1506
1512 1499 1495 1484 1477 1470 1469 1472 1473 1474 1471 1473 1477 1483 1481 1482 1487 1489 1489 1490 1490 1491 1492 1494 1491 1493 1494 1496 1498 1499 1501 1503 1504 1505 1504 1505 1505 1504 1504 1504 1504 1503 1503 1503 1503 1502 1502 1502 1502
1510 1502 1492 1481 1482 1475 1467 1472 1475 1476 1475 1477 1483 1484 1479 1481 1485 1486 1487 1487 1487 1487 1488 1490 1491 1488 1490 1491 1494 1496 1498 1500 1501 1501 1502 1501 1501 1501 1500 1501 1499 1500 1499 1499 1499 1498 1498 1498 1498
1507 1501 1493 1483 1479 1471 1468 1469 1471 1478 1483 1482 1482 1480 1480 1482 1483 1484 1484 1483 1483 1484 1484 1485 1486 1487 1486 1487 1489 1493 1495 1497 1498 1498 1498 1498 1498 1499 1499 1497 1496 1496 1496 1496 1495 1495 1494 1494 1494
1503 1493 1485 1476 1472 1470 1467 1466 1470 1473 1475 1478 1479 1477 1475 1479 1480 1480 1479 1477 1477 1476 1478 1480 1480 1483 1485 1485 1488 1488 1490 1492 1494 1494 1495 1495 1496 1497 1497 1497 1494 1494 1494 1493 1492 1492 1491 1490 1492
1490 1484 1478 1472 1470 1470 1470 1466 1468 1470 1471 1470 1472 1474 1473 1476 1476 1476 1474 1472 1471 1471 1471 1473 1475 1476 1480 1481 1484 1484 1487 1488 1490 1492 1493 1493 1493 1494 1493 1493 1491 1490 1490 1490 1490 1489 1490 1490 1491
1483 1478 1479 1475 1472 1470 1465 1466 1464 1468 1468 1470 1471 1472 1472 1473 1472 1470 1469 1468 1465 1463 1463 1466 1469 1468 1472 1476 1479 1480 1483 1486 1487 1489 1488 1488 1488 1488 1488 1489 1491 1488 1488 1488 1488 1488 1489 1488 1488
1469 1471 1472 1472 1471 1468 1467 1463 1461 1462 1467 1467 1468 1469 1468 1468 1466 1464 1463 1461 1459 1458 1458 1460 1463 1462 1463 1467 1473 1474 1476 1480 1483 1484 1484 1483 1485 1485 1485 1485 1484 1485 1486 1485 1484 1483 1485 1485 1485
1466 1464 1463 1465 1464 1464 1463 1458 1459 1461 1464 1461 1461 1461 1461 1460 1460 1458 1456 1454 1454 1453 1453 1455 1457 1456 1455 1459 1465 1465 1469 1472 1474 1478 1478 1479 1479 1480 1480 1480 1479 1480 1481 1480 1479 1479 1480 1482 1482
1462 1458 1456 1453 1457 1454 1458 1449 1450 1456 1456 1453 1453 1454 1453 1455 1454 1452 1450 1448 1448 1448 1450 1451 1453 1451 1449 1454 1460 1463 1466 1469 1470 1472 1473 1474 1474 1475 1474 1476 1476 1475 1474 1474 1475 1475 1477 1478 1479
1458 1454 1452 1446 1450 1451 1457 1441 1446 1449 1447 1444 1444 1445 1445 1450 1447 1446 1445 1443 1443 1444 1445 1445 1448 1447 1446 1451 1456 1460 1463 1462 1467 1468 1469 1469 1469 1470 1471 1470 1471 1471 1469 1469 1470 1471 1473 1474 1475
1448 1447 1440 1445 1442 1442 1443 1431 1439 1443 1440 1440 1437 1438 1443 1442 1441 1440 1439 1437 1438 1438 1439 1440 1441 1442 1443 1448 1453 1457 1460 1461 1462 1464 1465 1466 1466 1467 1466 1466 1465 1465 1465 1464 1465 1467 1470 1470 1471
1437 1438 1442 1440 1435 1432 1431 1423 1424 1432 1435 1435 1430 1432 1437 1434 1434 1433 1432 1431 1431 1432 1433 1433 1435 1438 1440 1445 1450 1455 1457 1459 1460 1461 1462 1463 1463 1462 1462 1461 1460 1460 1460 1460 1462 1464 1466 1468 1468
1427 1431 1427 1423 1420 1428 1424 1418 1415 1426 1429 1425 1424 1424 1427 1428 1428 1426 1425 1424 1425 1425 1426 1428 1431 1434 1438 1443 1448 1451 1454 1456 1457 1458 1459 1459 1458 1459 1458 1457 1457 1456 1456 1457 1458 1461 1463 1463 1465
1431 1430 1422 1419 1415 1416 1414 1414 1412 1413 1418 1419 1417 1414 1416 1421 1419 1420 1420 1419 1421 1422 1423 1425 1428 1430 1435 1441 1446 1450 1452 1454 1455 1456 1456 1456 1455 1454 1453 1452 1452 1452 1452 1453 1456 1458 1459 1460 1461
1418 1421 1422 1422 1417 1410 1412 1411 1406 1406 1407 1411 1414 1412 1412 1411 1413 1414 1414 1417 1419 1422 1422 1424 1425 1428 1435 1441 1444 1446 1448 1449 1451 1452 1452 1451 1451 1450 1450 1449 1449 1449 1450 1452 1454 1456 1456 1457 1458
1411 1409 1417 1420 1423 1426 1412 1417 1396 1399 1399 1400 1400 1399 1402 1405 1405 1405 1409 1415 1419 1421 1422 1422 1425 1429 1435 1438 1442 1444 1446 1447 1448 1449 1450 1449 1448 1448 1447 1446 1446 1447 1449 1451 1452 1452 1453 1455 1457
1390 1408 1409 1414 1422 1421 1412 1419 1387 1396 1394 1391 1391 1393 1396 1397 1397 1398 1407 1413 1417 1419 1421 1422 1426 1430 1433 1436 1440 1441 1443 1445 1446 1448 1447 1447 1445 1444 1444 1444 1445 1445 1447 1448 1449 1450 1451 1453 1455
1399 1406 1407 1407 1412 1419 1404 1414 1387 1391 1384 1382 1384 1385 1386 1387 1390 1397 1405 1411 1414 1418 1420 1423 1427 1430 1432 1436 1438 1440 1442 1443 1445 1445 1445 1443 1443 1442 1442 1444 1444 1444 1445 1446 1447 1449 1451 1452 1454
1392 1402 1417 1422 1410 1389 1395 1402 1380 1376 1375 1376 1379 1379 1378 1378 1387 1397 1403 1408 1412 1416 1420 1424 1427 1429 1431 1435 1437 1439 1440 1441 1443 1443 1442 1441 1440 1440 1441 1443 1443 1443 1444 1446 1447 1449 1451 1452 1453
1380 1386 1391 1407 1400 1394 1382 1393 1375 1363 1365 1369 1373 1370 1374 1381 1389 1396 1402 1406 1412 1415 1419 1424 1426 1428 1431 1434 1436 1438 1439 1441 1442 1441 1440 1440 1440 1440 1441 1442 1444 1444 1446 1448 1449 1449 1450 1451 1452
1371 1374 1363 1383 1369 1376 1363 1352 1354 1359 1359 1363 1364 1368 1373 1381 1389 1395 1400 1406 1411 1415 1419 1422 1425 1428 1431 1434 1436 1437 1439 1440 1441 1440 1439 1439 1440 1441 1442 1443 1443 1445 1447 1448 1449 1450 1451 1451 1451
1360 1359 1387 1377 1394 1385 1364 1363 1358 1357 1353 1354 1359 1361 1369 1380 1389 1394 1399 1405 1411 1415 1419 1422 1425 1428 1431 1434 1435 1437 1438 1440 1440 1438 1438 1439 1440 1442 1443 1443 1444 1446 1449 1449 1450 1450 1451 1452 1453
1355 1355 1363 1368 1364 1376 1381 1365 1338 1347 1350 1347 1349 1356 1366 1378 1386 1392 1398 1405 1410 1414 1418 1421 1425 1427 1431 1433 1435 1437 1438 1439 1439 1438 1439 1439 1440 1443 1444 1445 1445 1446 1447 1449 1450 1451 1452 1453 1455
1348 1349 1356 1361 1371 1360 1361 1361 1344 1347 1348 1343 1346 1353 1363 1377 1384 1390 1397 1404 1409 1413 1417 1420 1424 1427 1430 1433 1435 1437 1437 1439 1438 1439 1439 1439 1441 1444 1445 1446 1447 1448 1449 1450 1451 1452 1454 1455 1456
Wind_Speed
9 12 8 4 7 7 12 17 9 4 6 1 5 8 11 13 10 5 5 5 10 16 7 10 12 13 12 11 8 7 6 3 1 1 3 5 6 8 8 9 10 11 12 13 13 12 13 11 10
11 9 7 11 8 13 14 10 8 6 5 6 9 9 12 8 9 6 4 9 10 16 9 11 12 14 14 12 10 9 8 5 2 2 3 5 7 9 10 10 10 10 12 13 13 12 12 12 10
13 10 12 7 13 14 5 3 13 6 4 7 6 3 8 4 2 6 4 7 13 17 11 12 13 15 17 14 12 11 9 7 5 4 5 6 8 9 10 11 11 11 10 10 11 11 11 12 11
10 10 13 11 18 13 10 3 3 3 9 7 10 10 5 3 2 2 2 8 11 14 16 13 15 17 18 17 15 13 11 9 9 8 7 8 10 10 9 10 12 12 14 14 13 12 11 11 14
14 16 13 15 18 18 2 13 6 7 10 5 1 13 2 9 4 2 1 8 9 12 14 15 17 19 19 19 18 16 14 12 11 10 10 10 12 13 11 12 13 15 15 16 17 17 14 15 16
15 20 14 15 20 18 6 8 10 11 11 11 3 10 7 4 3 3 1 6 10 12 16 17 17 22 22 22 20 19 17 16 14 13 13 13 14 14 13 13 16 16 16 16 19 18 18 17 19
20 14 16 19 19 13 7 12 12 11 11 6 5 7 9 3 4 2 3 5 10 14 17 19 20 24 25 24 23 21 20 19 18 17 16 16 17 16 15 15 18 18 17 17 17 19 21 21 21
24 14 23 19 17 18 12 4 13 7 10 7 3 10 16 2 4 7 9 9 11 15 18 20 21 22 28 28 28 25 24 23 21 20 20 19 19 19 16 17 18 17 18 17 19 19 19 22 25
23 16 17 21 21 18 18 9 15 8 13 16 15 19 18 19 17 16 17 16 16 16 20 21 22 21 24 26 27 30 27 26 24 23 23 21 18 13 15 19 16 21 22 22 21 19 17 18 21
26 17 25 21 19 18 25 14 17 15 11 18 20 22 18 15 14 18 21 22 23 22 22 23 24 24 23 21 21 24 28 28 26 24 18 15 12 14 14 15 19 23 22 22 23 18 16 16 14
30 24 24 27 24 25 29 31 27 20 24 21 22 26 20 22 23 24 25 27 28 27 23 24 27 29 26 22 22 18 17 19 18 18 17 15 15 13 13 13 17 17 15 13 13 12 11 9 11
29 35 33 33 36 32 28 34 26 30 29 27 26 27 23 25 26 28 29 31 33 33 28 20 26 31 32 25 24 21 18 18 16 16 18 17 14 13 12 12 13 17 16 14 16 14 14 16 14
31 30 37 37 40 39 36 34 34 33 35 33 27 29 27 27 28 28 30 33 33 32 29 17 26 35 36 34 26 25 22 20 17 17 15 16 14 14 13 13 17 18 15 15 15 17 13 15 14
38 38 39 41 41 40 32 35 35 35 37 38 28 31 31 29 29 30 31 31 28 27 23 19 26 36 37 30 32 32 28 21 20 16 15 16 15 14 13 14 20 19 17 16 18 19 15 15 13
43 34 34 36 38 33 35 36 34 38 39 37 33 34 32 27 28 31 32 28 24 22 19 19 25 34 37 29 34 27 21 22 17 15 15 15 16 14 16 15 17 17 18 18 20 20 17 14 14
33 33 30 32 32 35 27 33 27 37 36 35 29 31 24 28 31 32 30 27 23 23 21 19 22 28 29 26 27 26 21 19 17 14 13 14 15 15 15 17 17 19 20 19 18 17 15 15 16
26 28 37 31 30 27 29 39 28 36 34 37 36 24 25 31 32 28 27 24 21 20 19 20 23 23 24 24 23 22 20 17 14 13 12 13 15 15 17 18 20 20 19 17 16 16 16 14 15
32 32 31 32 29 28 32 35 28 29 30 37 34 28 31 36 32 30 26 20 17 15 17 20 21 21 24 21 21 18 17 14 13 12 11 13 14 16 17 19 22 19 17 17 16 16 14 13 13
33 25 31 32 29 30 32 34 24 25 34 36 34 28 32 34 35 28 20 16 14 13 14 17 18 22 22 21 20 19 16 12 11 11 12 12 14 13 20 23 21 17 17 16 16 15 13 15 13
33 32 32 29 28 27 27 29 29 24 26 36 37 32 31 35 31 22 11 8 8 10 13 16 19 22 22 19 18 15 12 11 9 9 10 11 12 16 21 20 18 17 15 13 14 12 17 15 14
33 32 30 31 25 25 27 29 31 30 32 35 40 43 39 32 26 24 10 6 7 11 14 17 19 20 22 18 17 14 11 10 9 9 8 11 12 14 13 15 15 15 13 12 12 15 14 13 13
33 30 28 26 22 21 22 22 31 24 25 24 35 34 26 26 27 21 9 9 11 13 15 18 19 21 19 19 14 12 9 8 7 7 8 8 11 12 15 15 12 11 9 15 14 14 13 13 13
38 24 27 25 20 24 29 18 24 21 24 24 23 27 28 28 23 14 12 13 13 15 17 19 21 20 18 15 12 10 8 6 5 6 9 10 14 15 13 9 9 10 13 13 11 9 11 12 13
29 28 27 21 20 20 27 21 26 23 26 20 23 27 24 25 18 11 14 16 17 18 19 20 21 18 15 13 11 9 8 6 6 6 8 13 11 11 9 8 9 10 9 9 8 10 10 10 11
29 26 18 19 20 26 19 21 24 23 22 22 23 28 18 15 16 17 19 20 22 23 22 21 20 17 14 12 9 7 5 5 5 6 9 7 7 6 6 8 7 5 6 6 8 10 10 10 8
34 31 17 32 14 20 24 26 22 22 24 27 27 12 12 13 16 18 21 23 24 23 22 20 18 16 14 11 8 6 5 3 4 7 5 3 4 6 7 6 5 6 6 7 8 9 7 7 8
39 27 35 24 23 20 17 17 18 18 17 13 15 22 19 17 18 21 23 24 24 23 21 19 17 15 13 11 8 6 5 4 4 6 4 4 3 4 5 6 6 7 8 9 9 7 4 4 5
33 28 23 21 28 24 16 14 8 6 10 15 15 16 22 19 20 23 25 25 23 22 20 18 15 14 12 10 7 5 6 4 3 7 2 4 6 7 5 5 6 8 7 5 5 6 6 7 8
25 24 31 21 20 17 16 10 9 6 8 12 15 19 26 24 24 26 26 25 23 21 19 17 15 13 12 10 7 5 5 3 3 4 2 4 7 8 5 4 6 5 6 6 6 6 6 7 6
31 29 30 17 26 18 9 7 6 3 13 10 13 21 24 24 26 27 27 26 24 21 19 16 15 13 12 9 7 5 4 2 3 2 4 3 8 8 7 6 6 6 6 6 6 6 7 6 4
Wind_Direction
166 148 125 221 233 233 243 246 265 142 217 190 300 283 329 342 325 359 110 147 158 162 174 171 186 200 202 206 202 198 200 202 235 322 325 322 310 299 284 270 265 266 273 281 281 280 287 282 271
164 160 201 258 253 223 229 216 156 234 8 308 278 268 249 304 353 334 150 170 168 171 187 177 179 191 201 207 205 204 204 212 229 282 306 314 315 305 291 275 261 261 267 272 279 280 271 278 281
174 185 257 226 236 264 346 193 244 103 245 264 271 201 319 316 44 326 48 176 174 180 198 186 182 188 197 197 202 204 208 218 239 264 294 310 323 312 297 280 276 279 278 272 275 274 275 266 279
179 213 254 259 256 238 302 211 92 261 216 225 286 289 169 79 32 3 331 183 187 191 191 195 186 193 193 195 203 206 215 226 246 264 282 303 316 316 295 276 278 287 289 282 279 271 266 256 251
212 253 246 239 251 271 246 280 325 305 277 276 10 280 229 109 82 25 148 190 204 210 205 213 198 200 200 202 206 213 220 230 245 264 280 298 310 314 296 280 282 281 281 278 276 268 265 261 259
221 233 249 247 244 250 232 257 261 269 270 261 221 265 287 115 71 350 258 219 222 220 214 217 215 210 209 210 212 218 227 236 246 260 273 281 289 302 293 285 282 279 279 273 273 266 263 260 257
237 240 246 264 276 284 241 253 263 265 276 263 195 282 280 169 115 348 294 244 227 223 221 212 234 217 214 217 220 224 230 239 247 257 269 274 280 288 286 277 272 280 279 275 274 273 265 258 259
237 251 265 254 260 265 276 298 253 288 284 44 284 271 276 172 343 304 289 275 257 237 228 222 223 227 219 220 223 227 232 239 246 255 264 271 277 282 294 297 282 275 277 279 282 277 267 259 257
235 252 250 251 257 265 264 214 254 248 285 289 281 277 273 282 290 290 283 280 275 257 236 228 225 222 223 221 229 228 232 239 246 253 260 268 274 273 279 295 284 283 283 282 283 281 275 263 256
234 238 244 252 263 278 291 258 250 257 235 261 273 279 275 262 279 282 286 283 280 261 247 236 225 224 220 213 220 237 234 237 245 252 251 266 272 264 255 251 261 275 284 277 279 284 289 275 254
234 239 250 254 257 271 272 269 275 287 279 276 289 285 299 289 286 282 279 280 283 275 270 239 229 221 218 217 213 221 220 224 231 236 241 245 252 259 265 273 287 281 286 299 287 296 287 256 252
241 242 247 258 268 278 274 267 272 270 277 284 286 283 286 287 285 289 289 288 283 279 263 243 223 231 217 211 214 213 214 217 222 230 239 245 249 262 261 258 257 273 279 269 265 253 258 253 249
239 244 253 258 262 270 271 275 278 272 270 282 285 283 280 277 283 291 291 288 283 275 263 254 225 230 231 210 212 211 209 216 219 226 237 244 245 252 251 254 253 260 254 261 259 253 255 260 263
248 253 255 259 262 267 266 267 262 262 270 268 275 274 274 277 285 292 295 291 285 273 262 250 225 226 234 226 201 213 207 208 215 222 232 247 249 251 248 259 267 257 253 254 250 258 243 254 249
258 258 259 256 260 260 259 262 261 266 267 270 271 272 268 272 287 293 294 288 277 265 259 244 224 220 230 228 205 210 212 205 214 223 227 234 248 254 251 254 259 264 268 259 250 249 244 243 248
249 254 258 251 251 251 247 260 266 269 267 267 263 272 276 279 287 296 295 283 267 260 258 245 222 215 222 212 205 208 209 210 213 221 227 243 251 252 251 258 254 254 260 265 255 248 243 237 244
237 244 240 253 249 248 240 255 256 267 263 264 265 272 274 277 289 294 294 280 265 260 250 239 212 204 207 203 205 206 207 206 212 221 230 242 247 256 262 254 258 266 268 260 256 247 233 232 243
230 236 245 255 254 247 248 260 255 263 266 268 271 262 273 278 288 294 294 271 256 256 243 215 207 197 199 196 196 197 209 212 216 228 237 240 249 256 256 256 262 267 262 259 243 235 227 241 241
241 242 247 248 246 241 258 263 256 258 264 262 260 255 267 280 285 289 281 257 261 236 217 208 192 187 186 187 190 197 205 211 221 232 239 244 256 259 260 261 267 262 259 250 240 230 233 238 236
244 250 253 260 261 258 253 257 269 255 260 268 271 268 265 276 278 277 263 250 241 213 197 187 179 179 177 185 188 198 203 217 226 237 239 248 264 263 260 265 265 264 259 239 225 222 236 238 231
234 234 243 251 258 259 262 267 261 260 262 264 269 272 272 273 266 267 228 214 199 192 182 174 169 172 167 180 181 179 189 195 228 240 259 260 275 257 271 267 262 260 237 234 232 228 233 229 218
235 229 240 251 257 257 251 265 257 263 264 259 263 261 257 256 265 247 189 192 190 181 170 162 162 162 167 173 182 187 197 219 224 228 256 252 266 253 253 266 254 244 222 232 235 237 234 222 203
242 234 236 238 250 259 254 258 270 275 268 265 253 259 263 255 255 204 188 187 178 169 162 158 158 160 173 163 179 191 199 227 241 245 261 269 259 257 254 244 235 227 220 234 238 225 218 202 202
240 234 243 238 238 245 246 250 265 263 265 260 256 258 258 244 227 177 176 173 167 157 155 156 158 164 164 169 176 175 197 203 229 262 266 284 269 261 233 217 225 230 228 229 214 209 187 195 198
224 224 225 231 230 245 248 245 261 269 271 262 257 255 256 238 162 168 168 165 159 157 157 158 162 161 161 168 172 179 188 211 248 267 276 282 266 234 201 203 221 202 200 181 175 176 192 192 190
223 213 217 219 218 239 232 243 256 266 250 255 242 214 234 162 169 168 167 162 161 158 159 163 163 160 164 168 171 181 198 234 276 270 283 255 253 213 176 186 197 181 159 157 168 190 191 198 207
215 215 220 247 231 243 255 240 229 248 248 242 238 234 224 173 169 167 164 162 162 159 162 165 163 165 166 171 176 181 211 234 256 291 256 229 201 164 167 184 183 162 175 174 169 163 175 176 165
232 210 212 227 240 248 232 253 257 216 224 217 225 210 186 172 171 166 162 161 162 161 162 162 165 167 170 172 179 188 209 231 272 288 242 193 147 160 182 172 169 158 174 177 192 161 165 146 160
214 211 210 220 229 234 252 258 229 260 254 265 198 187 175 171 171 164 161 162 162 161 162 163 165 167 171 173 176 186 216 209 279 297 201 191 158 162 166 160 142 156 159 164 171 144 154 166 186
213 217 201 219 216 238 292 200 97 229 225 198 166 164 160 170 168 164 163 162 162 162 164 165 167 168 172 173 177 193 202 214 285 121 234 160 151 164 169 154 153 145 140 151 137 133 142 161 175